Wetterdaten: Donnerstag, 01.01.2015
Datum Zeit Temp. A. Feuchte A. Luftdruck Regen Wind Richtung Richtung Sonnenschein ET UV Solar Taupunkt Windchill Windben Empfang
01.01.2015 00:00 -0,9 C 76 % 1036,7 hPa 0,0 l/m 0,0 km/h (0 Bft) S 180 0 min 0,000 mm 0,0 UV-I 0 W/m -4,6 C -0,9 C 0,0 km/h (0 Bft) 0,00 %
01.01.2015 01:00 -0,8 C 75 % 1036,7 hPa 0,0 l/m 0,0 km/h (0 Bft) S 180 0 min 0,000 mm 0,0 UV-I 0 W/m -4,7 C -0,8 C 0,0 km/h (0 Bft) 0,00 %
01.01.2015 02:00 -1,0 C 75 % 1037,1 hPa 0,0 l/m 0,0 km/h (0 Bft) S 180 0 min 0,000 mm 0,0 UV-I 0 W/m -4,9 C -1,0 C 0,0 km/h (0 Bft) 0,00 %
01.01.2015 03:00 -1,1 C 76 % 1037,2 hPa 0,0 l/m 0,0 km/h (0 Bft) S 180 0 min 0,000 mm 0,0 UV-I 0 W/m -4,8 C -1,1 C 0,0 km/h (0 Bft) 0,00 %
01.01.2015 04:00 -1,2 C 76 % 1036,7 hPa 0,0 l/m 0,0 km/h (0 Bft) S 180 0 min 0,000 mm 0,0 UV-I 0 W/m -4,9 C -1,2 C 0,0 km/h (0 Bft) 0,00 %
01.01.2015 05:00 -1,2 C 76 % 1037,2 hPa 0,0 l/m 0,0 km/h (0 Bft) S 180 0 min 0,000 mm 0,0 UV-I 0 W/m -4,9 C -1,2 C 0,0 km/h (0 Bft) 0,00 %
01.01.2015 06:00 -1,2 C 76 % 1037,2 hPa 0,0 l/m 0,0 km/h (0 Bft) S 180 0 min 0,000 mm 0,0 UV-I 0 W/m -4,9 C -1,2 C 0,0 km/h (0 Bft) 0,00 %
01.01.2015 07:00 -1,3 C 76 % 1037,5 hPa 0,0 l/m 0,0 km/h (0 Bft) S 180 0 min 0,000 mm 0,0 UV-I 0 W/m -5,0 C -1,3 C 0,0 km/h (0 Bft) 0,00 %
01.01.2015 08:00 -1,1 C 75 % 1037,9 hPa 0,0 l/m 0,0 km/h (0 Bft) S 180 0 min 0,000 mm 0,0 UV-I 0 W/m -5,0 C -1,1 C 0,0 km/h (0 Bft) 0,00 %
01.01.2015 09:00 -0,6 C 76 % 1037,8 hPa 0,0 l/m 0,0 km/h (0 Bft) S 180 0 min 0,000 mm 0,0 UV-I 40 W/m -4,3 C -0,6 C 0,0 km/h (0 Bft) 0,00 %
01.01.2015 10:00 0,3 C 71 % 1038,0 hPa 0,0 l/m 0,0 km/h (0 Bft) S 180 0 min 0,000 mm 1,0 UV-I 100 W/m -4,3 C 0,3 C 0,0 km/h (0 Bft) 0,00 %
01.01.2015 11:00 1,6 C 66 % 1037,0 hPa 0,0 l/m 0,0 km/h (0 Bft) S 180 0 min 0,000 mm 1,0 UV-I 128 W/m -4,1 C 1,6 C 0,0 km/h (0 Bft) 0,00 %
01.01.2015 12:00 2,9 C 68 % 1037,2 hPa 0,0 l/m 0,0 km/h (0 Bft) S 180 60 min 0,000 mm 1,0 UV-I 186 W/m -2,4 C 2,9 C 0,0 km/h (0 Bft) 0,00 %
01.01.2015 13:00 2,2 C 63 % 1036,6 hPa 0,0 l/m 0,0 km/h (0 Bft) S 180 60 min 0,000 mm 1,0 UV-I 210 W/m -4,1 C 2,2 C 0,0 km/h (0 Bft) 0,00 %
01.01.2015 14:00 2,4 C 62 % 1036,9 hPa 0,0 l/m 0,0 km/h (0 Bft) S 180 0 min 0,000 mm 1,0 UV-I 116 W/m -4,1 C 2,4 C 0,0 km/h (0 Bft) 0,00 %
01.01.2015 15:00 1,2 C 69 % 1036,7 hPa 0,0 l/m 0,0 km/h (0 Bft) S 180 0 min 0,000 mm 1,0 UV-I 80 W/m -3,8 C 1,2 C 0,0 km/h (0 Bft) 0,00 %
01.01.2015 16:00 0,6 C 71 % 1036,4 hPa 0,0 l/m 0,0 km/h (0 Bft) S 180 0 min 0,000 mm 0,0 UV-I 16 W/m -4,0 C 0,6 C 0,0 km/h (0 Bft) 0,00 %
01.01.2015 17:00 -0,1 C 73 % 1036,6 hPa 0,0 l/m 0,0 km/h (0 Bft) S 180 0 min 0,000 mm 0,0 UV-I 0 W/m -4,3 C -0,1 C 0,0 km/h (0 Bft) 0,00 %
01.01.2015 18:00 -1,2 C 78 % 1036,7 hPa 0,0 l/m 0,0 km/h (0 Bft) S 180 0 min 0,000 mm 0,0 UV-I 0 W/m -4,5 C -1,2 C 0,0 km/h (0 Bft) 0,00 %
01.01.2015 19:00 -2,5 C 77 % 1036,7 hPa 0,0 l/m 0,0 km/h (0 Bft) S 180 0 min 0,000 mm 0,0 UV-I 0 W/m -6,0 C -2,5 C 0,0 km/h (0 Bft) 0,00 %
01.01.2015 19:15 -2,6 C 78 % 1036,9 hPa 0,0 l/m 0,0 km/h (0 Bft) S-SW 201 0 min 0,000 mm 0,0 UV-I 0 W/m -5,9 C -2,6 C 0,0 km/h (0 Bft) 0,00 %
01.01.2015 19:30 -2,8 C 78 % 1037,2 hPa 0,0 l/m 0,0 km/h (0 Bft) S-SW 201 0 min 0,000 mm 0,0 UV-I 0 W/m -6,1 C -2,8 C 0,0 km/h (0 Bft) 0,00 %
01.01.2015 19:45 -3,0 C 78 % 1037,5 hPa 0,0 l/m 0,0 km/h (0 Bft) S 191 0 min 0,000 mm 0,0 UV-I 0 W/m -6,3 C -3,0 C 0,0 km/h (0 Bft) 0,00 %
01.01.2015 20:00 -3,0 C 78 % 1037,5 hPa 0,0 l/m 0,0 km/h (0 Bft) S-SW 197 0 min 0,000 mm 0,0 UV-I 0 W/m -6,3 C -3,0 C 0,0 km/h (0 Bft) 0,00 %
01.01.2015 20:15 -2,7 C 83 % 1037,3 hPa 0,0 l/m 0,0 km/h (0 Bft) S 178 0 min 0,000 mm 0,0 UV-I 0 W/m -5,2 C -2,7 C 0,0 km/h (0 Bft) 0,00 %
01.01.2015 20:30 -2,3 C 83 % 1037,3 hPa 0,0 l/m 0,0 km/h (0 Bft) S 187 0 min 0,000 mm 0,0 UV-I 0 W/m -4,8 C -2,3 C 0,0 km/h (0 Bft) 0,00 %
01.01.2015 20:45 -2,4 C 83 % 1037,1 hPa 0,3 l/m 0,0 km/h (0 Bft) S 186 0 min 0,000 mm 0,0 UV-I 0 W/m -4,9 C -2,4 C 0,0 km/h (0 Bft) 0,00 %
01.01.2015 21:00 -2,4 C 78 % 1037,0 hPa 0,0 l/m 0,0 km/h (0 Bft) S-SW 200 0 min 0,000 mm 0,0 UV-I 0 W/m -5,7 C -2,4 C 0,0 km/h (0 Bft) 0,00 %
01.01.2015 21:15 -2,8 C 78 % 1036,8 hPa 0,0 l/m 0,0 km/h (0 Bft) S-SW 210 0 min 0,000 mm 0,0 UV-I 0 W/m -6,1 C -2,8 C 0,0 km/h (0 Bft) 0,00 %
01.01.2015 21:30 -3,2 C 77 % 1036,9 hPa 0,0 l/m 0,0 km/h (0 Bft) S-SW 193 0 min 0,000 mm 0,0 UV-I 0 W/m -6,6 C -3,2 C 0,0 km/h (0 Bft) 0,00 %
01.01.2015 21:45 -3,3 C 78 % 1036,7 hPa 0,0 l/m 0,0 km/h (0 Bft) S-SW 206 0 min 0,000 mm 0,0 UV-I 0 W/m -6,6 C -3,3 C 0,0 km/h (0 Bft) 0,00 %
01.01.2015 22:00 -3,6 C 77 % 1036,7 hPa 0,0 l/m 0,0 km/h (0 Bft) S 179 0 min 0,000 mm 0,0 UV-I 0 W/m -7,0 C -3,6 C 0,0 km/h (0 Bft) 0,00 %
01.01.2015 22:15 -3,9 C 78 % 1036,5 hPa 0,0 l/m 0,0 km/h (0 Bft) S-SW 211 0 min 0,000 mm 0,0 UV-I 0 W/m -7,2 C -3,9 C 0,0 km/h (0 Bft) 0,00 %
01.01.2015 22:30 -3,8 C 79 % 1036,3 hPa 0,0 l/m 0,0 km/h (0 Bft) S 188 0 min 0,000 mm 0,0 UV-I 0 W/m -6,9 C -3,8 C 0,0 km/h (0 Bft) 0,00 %
01.01.2015 22:45 -4,1 C 78 % 1036,3 hPa 0,0 l/m 0,0 km/h (0 Bft) S-SW 195 0 min 0,000 mm 0,0 UV-I 0 W/m -7,4 C -4,1 C 0,0 km/h (0 Bft) 0,00 %
01.01.2015 23:00 -4,4 C 79 % 1036,3 hPa 0,0 l/m 0,0 km/h (0 Bft) S-SW 204 0 min 0,000 mm 0,0 UV-I 0 W/m -7,5 C -4,4 C 0,0 km/h (0 Bft) 0,00 %
01.01.2015 23:15 -4,6 C 79 % 1036,2 hPa 0,0 l/m 0,0 km/h (0 Bft) S 172 0 min 0,000 mm 0,0 UV-I 0 W/m -7,7 C -4,6 C 0,0 km/h (0 Bft) 0,00 %
01.01.2015 23:30 -4,8 C 79 % 1036,1 hPa 0,0 l/m 0,0 km/h (0 Bft) S 191 0 min 0,000 mm 0,0 UV-I 0 W/m -7,9 C -4,8 C 0,0 km/h (0 Bft) 0,00 %
01.01.2015 23:45 -5,0 C 79 % 1036,1 hPa 0,0 l/m 0,0 km/h (0 Bft) S-SW 193 0 min 0,000 mm 0,0 UV-I 0 W/m -8,1 C -5,0 C 0,0 km/h (0 Bft) 0,00 %
01.01.2015 23:59 -5,2 C 79 % 1036,3 hPa 0,0 l/m 0,0 km/h (0 Bft) S-SW 213 0 min 0,000 mm 0,0 UV-I 0 W/m -8,3 C -5,2 C 0,0 km/h (0 Bft) 0,00 %
_ Min-Zeit 23:59 14:00 23:30 - 00:00 - - - - - - 23:59 23:59 00:00 00:00
Minimum _ -5,2 C 62 % 1036,1 hPa - 0,0 km/h (0 Bft) - - - - - - -8,3 C -5,2 C 0,0 km/h (0 Bft) 0,00 %
_ Max-Zeit 12:00 20:15 10:00 20:45 00:00 - - 12:00 00:00 10:00 13:00 12:00 12:00 00:00 00:00
Maximum _ 2,9 C 83 % 1038,0 hPa 0,3 l/m 0,0 km/h
S (0 Bft)
- - 60 min 0,000 mm 1,0 UV-I 210 W/m -2,4 C 2,9 C 0,0 km/h
S (0 Bft)
0,00 %
Durchschnitt _ -0,8 C 74 % 1037,0 hPa #0,3 l/m 0,0 km/h (0 Bft) - - - #2:00 h #0,000 mm 1,0 UV-I 110 W/m -4,9 C -0,8 C 0,0 km/h (0 Bft) 0,00 %